Change the Weather History Date:

Thursday, October 25, 2012

  Actual Average (KFHU) Record (KFHU)
Temperature  
Mean Temperature 60 °F -  
Max Temperature 75 °F 71 °F 89 °F (1982)
Min Temperature 45 °F 50 °F 43 °F (1984)
Degree Days  
Heating Degree Days 5    
Growing Degree Days 10 (Base 50)    
Moisture  
Dew Point 19 °F    
Average Humidity 24    
Maximum Humidity 41    
Minimum Humidity 9    
Precipitation  
Precipitation 0.00 in - - ()
Sea Level Pressure  
Sea Level Pressure 29.89 in    
Wind  
Wind Speed 8 mph (WSW)    
Max Wind Speed 13 mph    
Max Gust Speed -    
Averages and records for this station are not official NWS values.
T = Trace of Precipitation, MM = Missing Value Source: NWS Daily Summary

Daily Weather History Graph

Daily Weather History Graph

Search for Another Location

Airport or City:

Trip Planner

Search our weather history database for the weather conditions in past years. The results will help you decide how hot, cold, wet, or windy it might be!

Date:

Astronomy

Oct. 25, 2012 Rise Set
Actual Time 6:32 AM MST 5:38 PM MST
Civil Twilight 6:07 AM MST 6:03 PM MST
Nautical Twilight 5:39 AM MST 6:31 PM MST
Astronomical Twilight 5:10 AM MST 6:59 PM MST
Moon 3:15 PM MST (10/25) 2:45 AM MST (10/25)
Length of Visible Light 11h 55m
Length of Day
11h 05m
Waxing Gibbous, 85% of the Moon is Illuminated
Oct 25
Waxing Gibbous
Oct 29
Full
Nov 6
Last Quarter
Nov 13
New
Nov 20
First Quarter

Hourly Weather History & Observations

Time (MST) Temp. Windchill Dew Point Humidity Pressure Visibility Wind Dir Wind Speed Gust Speed Precip Events Conditions
12:56 AM 51.1 °F - 26.1 °F 38% 29.86 in - WSW 12.7 mph - N/A   Clear
1:56 AM 50.0 °F - 21.9 °F 33% 29.88 in - WSW 10.4 mph - N/A   Clear
2:56 AM 50.0 °F - 21.9 °F 33% 29.88 in - SW 9.2 mph - N/A   Clear
3:56 AM 50.0 °F - 21.0 °F 32% 29.88 in - SSW 4.6 mph - N/A   Clear
4:56 AM 45.0 °F 42.6 °F 21.9 °F 40% 29.90 in - WSW 4.6 mph - N/A   Clear
5:56 AM 46.9 °F - 24.1 °F 41% 29.91 in - SW 8.1 mph - N/A   Clear
6:56 AM 46.0 °F 44.8 °F 23.0 °F 40% 29.94 in - ENE 3.5 mph - N/A   Clear
7:56 AM 50.0 °F - 25.0 °F 38% 29.96 in - North 5.8 mph - N/A   Clear
8:56 AM 60.1 °F - 21.9 °F 23% 29.94 in - ENE 6.9 mph - N/A   Clear
9:56 AM 63.0 °F - 21.9 °F 21% 29.94 in - East 6.9 mph - N/A   Clear
10:56 AM 66.9 °F - 21.0 °F 17% 29.92 in - East 6.9 mph - N/A   Clear
11:56 AM 71.1 °F - 18.0 °F 13% 29.89 in - NE 4.6 mph - N/A   Clear
12:56 PM 73.0 °F - 10.9 °F 9% 29.85 in - NNE 4.6 mph - N/A   Clear
1:56 PM 75.0 °F - 12.9 °F 9% 29.83 in - Variable 3.5 mph - N/A   Clear
2:56 PM 75.0 °F - 10.9 °F 9% 29.83 in - WNW 5.8 mph - N/A   Clear
3:56 PM 75.0 °F - 15.1 °F 10% 29.83 in - NE 8.1 mph - N/A   Clear
4:56 PM 71.1 °F - 12.0 °F 10% 29.86 in - NW 9.2 mph - N/A   Clear
5:56 PM 63.0 °F - 12.9 °F 14% 29.89 in - West 8.1 mph - N/A   Clear
6:56 PM 60.1 °F - 15.1 °F 17% 29.91 in - SW 6.9 mph - N/A   Clear
7:56 PM 57.9 °F - 18.0 °F 21% 29.91 in - SSW 9.2 mph - N/A   Clear
8:56 PM 55.9 °F - 18.0 °F 23% 29.89 in - SW 9.2 mph - N/A   Clear
9:56 PM 54.0 °F - 18.0 °F 24% 29.90 in - SW 10.4 mph - N/A   Clear
10:56 PM 53.1 °F - 17.1 °F 24% 29.90 in - WSW 6.9 mph - N/A   Clear
11:56 PM 51.1 °F - 17.1 °F 26% 29.89 in - WSW 8.1 mph - N/A   Clear